Tracking 29892 objects as of 21-Nov-2024
HD Live streaming from Space Station
objects crossing your sky now

LEMUR 2 SPECIAL K

Track LEMUR 2 SPECIAL K now!
10-day predictions
LEMUR 2 SPECIAL K is classified as:


NORAD ID: 48273
Int'l Code: 2021-034F
Perigee: 545.9 km
Apogee: 548.5 km
Inclination: 97.6 °
Period: 95.4 minutes
Semi major axis: 6918 km
RCS: Unknown
Launch date: April 29, 2021
Source: United States (US)
Launch site: FRENCH GUIANA (FRGUI)
Your satellite tracking list
Your tracking list is empty




NASA's NSSDC Master Catalog

Two Line Element Set (TLE):
1 48273U 21034F   24326.12926609  .00025508  00000-0  16248-2 0  9999
2 48273  97.6321  29.9152 0001894 137.2961 222.8415 15.08730706194110
Source of the keplerian elements: AFSPC